Sheldon, IA

12:28 AM CST on February 09, 2016 (GMT -0600)
Sheldon Municipal

Weather History for KSHL - March, 2015

Change the Weather History Date:

Sunday, March 22, 2015

  Actual Average Record
Temperature  
Mean Temperature 40 °F -  
Max Temperature 51 °F 44 °F 76 °F (1988)
Min Temperature 30 °F 25 °F -2 °F (1955)
Degree Days  
Heating Degree Days 24    
Moisture  
Dew Point 23 °F    
Average Humidity 59    
Maximum Humidity 87    
Minimum Humidity 39    
Precipitation  
Precipitation 0.00 in - - ()
Sea Level Pressure  
Sea Level Pressure 30.05 in    
Wind  
Wind Speed 20 mph (East)    
Max Wind Speed 29 mph    
Max Gust Speed 37 mph    
Visibility 10 miles    
Events      
Averages and records for this station are not official NWS values.
T = Trace of Precipitation, MM = Missing Value Source: NWS Daily Summary

Daily Weather History Graph

Daily Weather History Graph

Search for Another Location

Airport or City:

Trip Planner

Search our weather history database for the weather conditions in past years. The results will help you decide how hot, cold, wet, or windy it might be!

Date:

Astronomy

Mar. 22, 2015 Rise Set
Actual Time 7:23 AM CDT 7:37 PM CDT
Civil Twilight 6:54 AM CDT 8:06 PM CDT
Nautical Twilight 6:21 AM CDT 8:39 PM CDT
Astronomical Twilight 5:47 AM CDT 9:13 PM CDT
Moon 8:46 AM CDT (3/22) 10:43 PM CDT (3/22)
Length of Visible Light 13h 11m
Length of Day
12h 14m
Waxing Crescent, 8% of the Moon is Illuminated
Mar 22
Waxing Crescent
Mar 27
First Quarter
Apr 4
Full
Apr 11
Last Quarter
Apr 18
New

Hourly Weather History & Observations

Time (CDT) Temp. Windchill Dew Point Humidity Pressure Visibility Wind Dir Wind Speed Gust Speed Precip Events Conditions
12:15 AM 33.8 °F 23.5 °F 17.6 °F 52% 30.11 in 10.0 mi East 16.1 mph - N/A   Mostly Cloudy
12:35 AM 33.8 °F 23.2 °F 17.6 °F 52% 30.10 in 10.0 mi East 17.3 mph - N/A   Mostly Cloudy
12:55 AM 33.8 °F 23.5 °F 19.4 °F 56% 30.10 in 10.0 mi East 16.1 mph - N/A   Mostly Cloudy
1:15 AM 32.0 °F 21.2 °F 19.4 °F 60% 30.10 in 10.0 mi East 16.1 mph 23.0 mph N/A   Mostly Cloudy
1:35 AM 32.0 °F 21.6 °F 19.4 °F 60% 30.10 in 10.0 mi East 15.0 mph - N/A   Mostly Cloudy
1:55 AM 32.0 °F 21.2 °F 19.4 °F 60% 30.10 in 10.0 mi East 16.1 mph - N/A   Mostly Cloudy
2:15 AM 32.0 °F 21.2 °F 17.6 °F 55% 30.10 in 10.0 mi East 16.1 mph 21.9 mph N/A   Mostly Cloudy
2:35 AM 32.0 °F 20.5 °F 17.6 °F 55% 30.10 in 10.0 mi East 18.4 mph - N/A   Mostly Cloudy
2:55 AM 32.0 °F 20.8 °F 17.6 °F 55% 30.10 in 10.0 mi East 17.3 mph - N/A   Overcast
3:15 AM 30.2 °F 18.9 °F 17.6 °F 60% 30.10 in 10.0 mi East 16.1 mph 21.9 mph N/A   Overcast
3:35 AM 30.2 °F 19.3 °F 17.6 °F 60% 30.10 in 10.0 mi East 15.0 mph - N/A   Overcast
3:55 AM 30.2 °F 19.3 °F 17.6 °F 60% 30.10 in 10.0 mi East 15.0 mph - N/A   Overcast
4:15 AM 32.0 °F 20.8 °F 17.6 °F 55% 30.09 in 10.0 mi East 17.3 mph - N/A   Overcast
4:35 AM 32.0 °F 21.2 °F 17.6 °F 55% 30.09 in 10.0 mi East 16.1 mph 24.2 mph N/A   Overcast
4:55 AM 32.0 °F 20.8 °F 17.6 °F 55% 30.09 in 10.0 mi East 17.3 mph - N/A   Overcast
5:15 AM 32.0 °F 21.2 °F 17.6 °F 55% 30.09 in 10.0 mi East 16.1 mph 23.0 mph N/A   Overcast
5:35 AM 32.0 °F 20.8 °F 17.6 °F 55% 30.08 in 10.0 mi East 17.3 mph - N/A   Overcast
5:55 AM 32.0 °F 20.8 °F 17.6 °F 55% 30.08 in 10.0 mi East 17.3 mph - N/A   Mostly Cloudy
6:15 AM 32.0 °F 21.2 °F 17.6 °F 55% 30.08 in 10.0 mi East 16.1 mph - N/A   Mostly Cloudy
6:35 AM 32.0 °F 20.5 °F 15.8 °F 51% 30.08 in 10.0 mi East 18.4 mph - N/A   Mostly Cloudy
6:55 AM 32.0 °F 20.1 °F 15.8 °F 51% 30.07 in 10.0 mi East 19.6 mph - N/A   Mostly Cloudy
7:15 AM 32.0 °F 19.5 °F 15.8 °F 51% 30.07 in 10.0 mi East 21.9 mph 27.6 mph N/A   Scattered Clouds
7:35 AM 32.0 °F 20.1 °F 15.8 °F 51% 30.07 in 10.0 mi East 19.6 mph 27.6 mph N/A   Clear
7:55 AM 33.8 °F 22.2 °F 15.8 °F 48% 30.07 in 10.0 mi East 20.7 mph 29.9 mph N/A   Clear
8:15 AM 33.8 °F 22.8 °F 15.8 °F 48% 30.06 in 10.0 mi East 18.4 mph 26.5 mph N/A   Clear
8:30 AM 32.0 °F 20.1 °F 17.6 °F 55% 30.07 in 10.0 mi East 19.6 mph - N/A   Partly Cloudy
8:55 AM 33.8 °F 23.2 °F 17.6 °F 52% 30.06 in 10.0 mi East 17.3 mph 24.2 mph N/A   Partly Cloudy
9:15 AM 33.8 °F 21.9 °F 17.6 °F 52% 30.06 in 10.0 mi East 21.9 mph - N/A   Clear
9:35 AM 33.8 °F 21.9 °F 17.6 °F 52% 30.06 in 10.0 mi East 21.9 mph - N/A   Clear
9:55 AM 35.6 °F 24.0 °F 17.6 °F 48% 30.07 in 10.0 mi East 23.0 mph 29.9 mph N/A   Clear
10:15 AM 35.6 °F 23.4 °F 17.6 °F 48% 30.07 in 10.0 mi East 25.3 mph - N/A   Clear
10:35 AM 37.4 °F 26.6 °F 19.4 °F 48% 30.08 in 10.0 mi East 21.9 mph 29.9 mph N/A   Clear
10:55 AM 39.2 °F 28.3 °F 19.4 °F 45% 30.07 in 10.0 mi East 25.3 mph 32.2 mph N/A   Clear
11:15 AM 39.2 °F 28.3 °F 19.4 °F 45% 30.06 in 10.0 mi East 25.3 mph 35.7 mph N/A   Clear
11:35 AM 42.8 °F 33.5 °F 19.4 °F 39% 30.06 in 10.0 mi East 23.0 mph 31.1 mph N/A   Clear
11:55 AM 42.8 °F 33.5 °F 21.2 °F 42% 30.06 in 10.0 mi East 23.0 mph 32.2 mph N/A   Clear
12:15 PM 42.8 °F 32.7 °F 21.2 °F 42% 30.03 in 10.0 mi East 27.6 mph 34.5 mph N/A   Clear
12:35 PM 46.4 °F 37.5 °F 23.0 °F 40% 30.02 in 10.0 mi East 27.6 mph 36.8 mph N/A   Clear
12:55 PM 46.4 °F 37.9 °F 24.8 °F 43% 30.01 in 10.0 mi East 25.3 mph 32.2 mph N/A   Clear
1:15 PM 46.4 °F 38.1 °F 24.8 °F 43% 30.02 in 10.0 mi ESE 24.2 mph 35.7 mph N/A   Clear
1:35 PM 48.2 °F - 26.6 °F 43% 30.03 in - East 24.2 mph 35.7 mph N/A   Clear
1:55 PM 48.2 °F - 26.6 °F 43% 30.02 in 10.0 mi ESE 28.8 mph 35.7 mph N/A   Clear
2:15 PM 48.2 °F - 28.4 °F 46% 29.99 in 10.0 mi ESE 25.3 mph 35.7 mph N/A   Clear
2:35 PM 48.2 °F - 28.4 °F 46% 30.00 in 10.0 mi ESE 25.3 mph - N/A   Clear
2:55 PM 48.2 °F - 28.4 °F 46% 29.97 in 10.0 mi East 26.5 mph 34.5 mph N/A   Clear
3:15 PM 48.2 °F - 30.2 °F 50% 29.98 in 10.0 mi East 24.2 mph 29.9 mph N/A   Clear
3:35 PM 50.0 °F - 30.2 °F 47% 29.99 in 10.0 mi East 21.9 mph 29.9 mph N/A   Partly Cloudy
3:55 PM 50.0 °F - 32.0 °F 50% 29.99 in 10.0 mi East 21.9 mph 31.1 mph N/A   Scattered Clouds
4:15 PM 51.8 °F - 32.0 °F 47% 29.99 in 10.0 mi East 20.7 mph 29.9 mph N/A   Partly Cloudy
4:35 PM 50.0 °F - 32.0 °F 50% 29.99 in 10.0 mi East 21.9 mph - N/A   Clear
4:55 PM 51.8 °F - 33.8 °F 50% 30.01 in 10.0 mi ENE 21.9 mph - N/A   Partly Cloudy
5:15 PM 48.2 °F - 30.2 °F 50% 29.99 in 10.0 mi ENE 21.9 mph 29.9 mph N/A   Partly Cloudy
5:35 PM 44.6 °F 35.5 °F 30.2 °F 57% 29.98 in 10.0 mi ENE 25.3 mph 33.4 mph N/A   Clear
5:55 PM 42.8 °F 33.3 °F 30.2 °F 61% 29.98 in 10.0 mi ENE 24.2 mph 31.1 mph N/A   Clear
6:15 PM 41.0 °F 31.6 °F 30.2 °F 65% 29.98 in 10.0 mi ENE 20.7 mph 29.9 mph N/A   Clear
6:35 PM 39.2 °F 28.0 °F 30.2 °F 70% 29.97 in 10.0 mi ENE 26.5 mph 34.5 mph N/A   Scattered Clouds
6:55 PM 39.2 °F 28.0 °F 30.2 °F 70% 29.98 in 10.0 mi ENE 26.5 mph 35.7 mph N/A   Mostly Cloudy
7:15 PM 37.4 °F 25.6 °F 30.2 °F 75% 29.99 in 10.0 mi ENE 26.5 mph 35.7 mph N/A   Partly Cloudy
7:35 PM 35.6 °F 23.7 °F 30.2 °F 81% 30.02 in 10.0 mi NE 24.2 mph - N/A   Partly Cloudy
7:55 PM 33.8 °F 21.0 °F 28.4 °F 81% 30.03 in 10.0 mi NE 25.3 mph - N/A   Mostly Cloudy
8:15 PM 33.8 °F 21.9 °F 28.4 °F 81% 30.04 in 10.0 mi NE 21.9 mph 31.1 mph N/A   Overcast
8:35 PM 33.8 °F 21.3 °F 28.4 °F 81% 30.05 in 10.0 mi NE 24.2 mph - N/A   Overcast
8:55 PM 33.8 °F 21.3 °F 28.4 °F 81% 30.07 in 10.0 mi NE 24.2 mph 29.9 mph N/A   Overcast
9:15 PM 32.0 °F 19.2 °F 28.4 °F 87% 30.08 in 10.0 mi NNE 23.0 mph - N/A   Overcast
9:35 PM 32.0 °F 19.5 °F 28.4 °F 87% 30.09 in 10.0 mi NNE 21.9 mph 28.8 mph N/A   Overcast
9:55 PM 32.0 °F 18.9 °F 28.4 °F 87% 30.10 in 10.0 mi NE 24.2 mph - N/A   Overcast
10:15 PM 32.0 °F 18.9 °F 28.4 °F 87% 30.09 in 10.0 mi NE 24.2 mph - N/A   Overcast
10:35 PM 32.0 °F 19.8 °F 28.4 °F 87% 30.09 in 10.0 mi NE 20.7 mph 28.8 mph N/A   Overcast
10:55 PM 32.0 °F 19.5 °F 28.4 °F 87% 30.10 in 10.0 mi NE 21.9 mph 29.9 mph N/A   Overcast
11:15 PM 32.0 °F 19.5 °F 28.4 °F 87% 30.11 in 10.0 mi NE 21.9 mph 27.6 mph N/A   Overcast
11:35 PM 32.0 °F 20.1 °F 28.4 °F 87% 30.11 in 10.0 mi ENE 19.6 mph - N/A   Overcast
11:55 PM 32.0 °F 20.1 °F 28.4 °F 87% 30.11 in 10.0 mi ENE 19.6 mph - N/A   Overcast